Location: Peebles
(55.6412°N, 3.1714°W)
Time: 23:19:15
(UTC+00:00)

Cosmos 990 Rocket - Visible Passes

Search period start: 27 January 2022 00:00
Search period end: 06 February 2022 00:00
Orbit: 748 x 767 km, 74.0° (Epoch: 27 January)

Date Brightness Start Highest point End Pass type
(mag) Time Alt. Az. Time Alt. Az. Time Alt. Az.
27 Jan 6.3 04:15:01 15° N 04:16:51 17° NNE 04:20:13 10° ENE visible
27 Jan 4.7 05:55:04 11° NNW 05:59:56 52° NE 06:04:58 10° SE visible
28 Jan 6.6 03:35:40 14° NNE 03:36:06 14° NNE 03:38:41 10° NE visible
28 Jan 5.3 05:15:42 15° NNW 05:19:33 36° NE 05:24:18 10° ESE visible
28 Jan 4.1 06:56:37 10° NW 07:01:38 54° WSW 07:06:38 10° S visible
29 Jan 6.9 02:56:20 11° NNE 02:56:20 11° NNE 02:56:58 10° NE visible
29 Jan 5.9 04:36:23 17° N 04:39:03 26° NE 04:43:20 10° E visible
29 Jan 3.9 06:16:26 10° NNW 06:21:32 84° WSW 06:26:42 10° SSE visible
30 Jan 6.2 03:57:05 18° NNE 03:58:27 19° NE 04:02:10 10° E visible
30 Jan 4.3 05:37:09 16° NNW 05:41:20 64° ENE 05:46:27 10° SE visible
30 Jan 5.0 07:18:32 10° NW 07:22:48 27° W 07:27:04 10° SSW visible
31 Jan 6.6 03:17:51 15° NNE 03:17:51 15° NNE 03:20:45 10° ENE visible
31 Jan 5.0 04:57:54 21° N 05:00:59 43° NE 05:05:55 10° ESE visible
31 Jan 4.4 06:38:01 10° NW 06:42:52 42° WSW 06:47:43 10° S visible
01 Feb 7.0 02:38:40 11° NE 02:38:40 11° NE 02:39:08 10° NE visible
01 Feb 5.6 04:18:44 24° N 04:20:33 30° NE 04:25:07 10° ESE visible
01 Feb 3.9 05:58:48 16° NNW 06:02:50 67° WSW 06:07:57 10° SSE visible
02 Feb 6.1 03:39:38 22° NNE 03:40:00 22° NE 03:44:03 10° E visible
02 Feb 4.0 05:19:42 26° NNW 05:22:41 80° ENE 05:27:51 10° SSE visible
02 Feb 5.2 07:00:08 10° NW 07:03:57 21° W 07:07:46 10° SW visible
03 Feb 6.6 03:00:38 16° NE 03:00:38 16° NE 03:02:45 10° ENE visible
03 Feb 4.6 04:40:43 37° N 04:42:25 53° NE 04:47:29 10° SE visible
03 Feb 4.6 06:20:47 17° NW 06:24:05 33° WSW 06:28:41 10° SSW visible
03 Feb 5.8 19:20:49 10° SSE 19:22:03 16° SSE 19:22:03 16° SSE visible
03 Feb 6.6 21:02:00 10° SW 21:02:12 11° SW 21:02:12 11° SW visible
04 Feb 5.3 04:01:51 36° NE 04:02:02 36° NE 04:06:48 10° ESE visible
04 Feb 4.0 05:41:55 31° NW 05:44:06 53° WSW 05:49:07 10° S visible
04 Feb 5.4 18:41:44 10° SE 18:44:09 19° ESE 18:44:09 19° ESE visible
04 Feb 5.2 20:21:36 10° SSW 20:24:17 32° SW 20:24:17 32° SW visible
05 Feb 6.1 03:23:07 22° ENE 03:23:07 22° ENE 03:25:52 10° E visible
05 Feb 3.8 05:03:13 64° NW 05:04:00 82° WSW 05:09:11 10° SSE visible
05 Feb 5.4 06:43:19 14° WNW 06:45:05 17° W 06:48:16 10° SW visible
05 Feb 5.6 18:03:29 10° ESE 18:05:45 13° E 18:06:11 13° E visible
05 Feb 3.9 19:41:31 10° SSW 19:46:19 65° SE 19:46:19 65° SE visible
05 Feb 6.1 21:24:21 10° WSW 21:26:28 21° W 21:26:28 21° W visible
